STARLINK-2268 (48030 NORAD) Tracking and Keplerian Element Data

This shows tracking and keplerian element data for the satellite.

Feedback or suggestion? Click here.




ElementValue
Catalog48030
NameSTARLINK-2268
Epoch Orbit1514
Epoch Day173.89264839
Epoch Year2021
RAAN140.9183
Inclination53.054
Eccentricity0.0001316
Argument of Perigee66.511
Mean Anonmoly293.6017
Mean Motion15.0477328
Decay Rate1.88E-06
L11 48030U 21024BF 21173.89264839 .00000188 00000-0 32617-4 0 9997
L22 48030 53.0540 140.9183 0001316 66.5110 293.6017 15.04773280 15146

Live tracking and technical data element details for STARLINK-2268 (NORAD 48030). STARLINK-2268 can be tracked NOW for your location showing map with azimuth and elevation plus other details from your city location.

Track the satellite on the map from your city or location and see movement details for azimuth, elevation, latitude, longitude, range, height, and movement on the map or in text.







IsCatalogInMostPopularTable: catalog: 48030, numindb: 41
Update: records affected: 1



GetName: 48030 STARLINK-2268

Hit Count: updated at: Thu, 24 Jun 2021 02:39:18 GMT